Regional Weather Roundup
Issued by NWS

Home | Current Version | Previous Version | Text Only | Print | Product List | Glossary Off
Versions: 1 2 3 4 5 6 7 8 9 10 11 12 13 14 15 16 17 18 19 20 21 22 23 24 25 26 27 28 29 30 31 32 33 34 35 36 37 38 39 40 41 42 43 44 45 46 47 48 49 50

000
ASUS43 KLSX 300007
RWRMO

WEATHER SUMMARY FOR MISSOURI
NATIONAL WEATHER SERVICE SPRINGFIELD MO
700 PM CDT FRI MAY 29 2015

NOTE: "FAIR" INDICATES FEW OR NO CLOUDS BELOW 12,000 FEET WITH NO
       SIGNIFICANT WEATHER AND/OR OBSTRUCTIONS TO VISIBILITY.
       CURRENT SKY AND/OR WEATHER CONDITIONS ARE NOT AVAILABLE FOR
       CHILLICOTHE AND FARMINGTON.

MOZ001>031-035>038-043-044-053-054-300100-
...NORTHERN AND WESTERN MISSOURI...

CITY           SKY/WX    TMP DP  RH WIND       PRES   REMARKS
KANSAS CTY INT CLOUDY    69  66  90 S8        29.94F
6HR MIN TEMP:  67; 6HR MAX TEMP:  70; 6HR PCP:  0.07;

KANSAS C DTWN  CLOUDY    71  63  75 S12       29.94F
6HR MIN TEMP:  69; 6HR MAX TEMP:  72; 6HR PCP:  0.01;

LEE`S SUMMIT   CLOUDY    69  65  86 SW7       29.96F
6HR MIN TEMP:  67; 6HR MAX TEMP:  69; 6HR PCP:  0.20;

ST JOSEPH      PTSUNNY   71  65  81 SW7       29.93F
6HR MIN TEMP:  67; 6HR MAX TEMP:  72; 6HR PCP:  0.06;

CHILLICOTHE      N/A     70  65  84 SW5       29.96S
6HR MIN TEMP:  70; 6HR MAX TEMP:  72; 6HR PCP:  0.02;

KIRKSVILLE     CLOUDY    71  67  87 S7        29.96R
6HR MIN TEMP:  71; 6HR MAX TEMP:  75; 6HR PCP: TRACE;


$$
MOZ066>068-077>081-088>096-101>105-300100-
...SOUTHWEST MISSOURI...

CITY           SKY/WX    TMP DP  RH WIND       PRES   REMARKS
SPRINGFIELD    TSTM      67  65  93 SW12      29.96R FOG
6HR MIN TEMP:  67; 6HR MAX TEMP:  77; 6HR PCP:  0.42;

JOPLIN         LGT RAIN  65  63  93 E8        29.94F
6HR MIN TEMP:  64; 6HR MAX TEMP:  73; 6HR PCP:  0.66;


$$
MOZ032>034-039>042-045>050-055>058-069>072-300100-
...CENTRAL MISSOURI...

CITY           SKY/WX    TMP DP  RH WIND       PRES   REMARKS
COLUMBIA       LGT RAIN  71  66  84 SE3       29.98S
6HR MIN TEMP:  70; 6HR MAX TEMP:  76; 6HR PCP:  0.02;

JEFFERSON CITY LGT RAIN  70  65  84 CALM      29.97S
6HR MIN TEMP:  70; 6HR MAX TEMP:  77; 6HR PCP:  0.14;

ROLLA          CLOUDY    72  67  84 N6        29.96F
6HR MIN TEMP:  68; 6HR MAX TEMP:  76; 6HR PCP:  0.04;

SEDALIA        LGT RAIN  71  67  87 S5        29.98S
6HR MIN TEMP:  70; 6HR MAX TEMP:  74; 6HR PCP:  0.04;

WHITEMAN AFB   LGT RAIN  68  66  94 VRB3      29.95F
WARRENSBURG    DRIZZLE   68  64  88 CALM      29.95F
OSAGE BEACH    CLOUDY    70  66  88 NE6       29.97S

$$
MOZ051-052-059>065-300100-
...EAST CENTRAL MISSOURI...

CITY           SKY/WX    TMP DP  RH WIND       PRES   REMARKS
ST LOUIS INTL  PTSUNNY   79  69  71 S8        29.98R
6HR MIN TEMP:  79; 6HR MAX TEMP:  86; 6HR PCP: TRACE;

SPIRIT OF STL  PTSUNNY   78  69  73 SW3       29.96R
6HR MIN TEMP:  78; 6HR MAX TEMP:  84; 6HR PCP: TRACE;

ST CHARLES     PTSUNNY   79  67  66 NW5       29.96R
6HR MIN TEMP:  79; 6HR MAX TEMP:  85;


$$
MOZ072>076-082>087-097>100-106>115-300100-
...SOUTH CENTRAL AND SOUTHEAST MISSOURI...

CITY           SKY/WX    TMP DP  RH WIND       PRES   REMARKS
CAPE GIRARDEAU MOSUNNY   80  68  66 S9        29.97S
6HR MIN TEMP:  80; 6HR MAX TEMP:  84;

FARMINGTON     PTSUNNY   70  66  88 CALM      30.03F
6HR MIN TEMP:  70; 6HR MAX TEMP:  82; 6HR PCP:  0.68;

POPLAR BLUFF   MOSUNNY   79  69  71 SE12      29.95S
6HR MIN TEMP:  79; 6HR MAX TEMP:  86;

WEST PLAINS    TSTM      73  66  78 SE13G20   29.97R
6HR MIN TEMP:  73; 6HR MAX TEMP:  83;


$$


USA.gov is the U.S. government's official web portal to all federal, state and local government web resources and services.